sat.trackr.live / text

‹ back to catalog

STARLINK-35829

NORAD 66350 · 2025-254C

PAYLOAD ACTIVE UNKNOWN

§ Identity

Operator
Country
US
Launch date
2025-11-06
Launch site
AFWTR
Launch vehicle
Mass (kg)
RCS (m²)

Purposes: comms

External: N2YO · Heavens-Above · Gunter

§ Orbital elements

Epoch: 2026-05-24T22:56:57.895296Z

Period
94.10 min
Inclination
53.1561°
Eccentricity
0.0000800
Mean motion
15.30206644 rev/d
Perigee alt
474.6 km
Apogee alt
475.7 km
Semi-major
6,853.3 km
B*
5.5104e-4
RAAN
238.1160°
Arg perigee
70.2026°
Mean anomaly
289.9061°
Rev number
3,065

§ Raw data

STARLINK-358291 66350U 25254C   26144.95622564  .00016000  00000+0  55104-3 0  99982 66350  53.1561 238.1160 0000800  70.2026 289.9061 15.30206644 30659

JSON: /api/v1/satellites/66350 · /tle

For live sub-satellite position, see the globe view (requires WebGL).

§ Visibility from observer

Set your observer location to see the next 7 days of passes ≥ 10°. The values pass through the URL so the page stays shareable.

No JS? Fill the form by hand. The geolocation button needs JavaScript.